カタログに戻る

CZ-6A DEB

運用中PO
NORAD 60798·DEBRIS·🇨🇳 China

打ち上げ Aug 6, 2024 から Taiyuan Satellite Launch Center

Loading…

次のパス (今後24時間)

TLE

最新Source: Space-Track

元期: Sep 14, 2026, 18:22 UTC

1 60798U 24140FZ  26257.76565472  .00000174  00000-0  84576-4 0  9991
2 60798  89.0440 269.9785 0073455 274.7102  84.5698 14.12807564107826

AllMySatでCZ-6A DEBをリアルタイム追跡

Download on the App Store